Weather History for KBKD - September, 2012

Change the Weather History Date:

Saturday, September 1, 2012

  Actual Average (KABI) Record (KABI)
Temperature  
Mean Temperature 91 °F 80 °F  
Max Temperature 105 °F 91 °F 106 °F (1952)
Min Temperature 77 °F 69 °F 57 °F (1950)
Degree Days  
Heating Degree Days 0 0  
Month to date heating degree days 0  
Since 1 July heating degree days 0  
Cooling Degree Days 26 15  
Month to date cooling degree days 15  
Year to date cooling degree days 1960  
Growing Degree Days 41 (Base 50)    
Moisture  
Dew Point 60 °F    
Average Humidity 40    
Maximum Humidity 69    
Minimum Humidity 17    
Precipitation  
Precipitation 0.00 in 0.08 in 2.70 in (1932)
Month to date precipitation 0.08  
Year to date precipitation 17.04  
Sea Level Pressure  
Sea Level Pressure 29.99 in    
Wind  
Wind Speed 8 mph (SW)    
Max Wind Speed 13 mph    
Max Gust Speed 21 mph    
Visibility 10 miles    
Events      
T = Trace of Precipitation, MM = Missing Value Source: NWS Daily Summary

Daily Weather History Graph

Daily Weather History Graph

Search for Another Location

Airport or City:

Trip Planner

Search our weather history database for the weather conditions in past years. The results will help you decide how hot, cold, wet, or windy it might be!

Date:

Astronomy

Sep. 01, 2012 Rise Set
Actual Time 7:10 AM CDT 7:59 PM CDT
Civil Twilight 6:45 AM CDT 8:24 PM CDT
Nautical Twilight 6:15 AM CDT 8:54 PM CDT
Astronomical Twilight 5:45 AM CDT 9:24 PM CDT
Moon 8:26 PM CDT (9/1) 8:12 AM CDT (9/1)
Length of Visible Light 13h 39m
Length of Day
12h 48m
Full, 99% of the Moon is Illuminated
Sep 1
Full
Sep 8
Last Quarter
Sep 15
New
Sep 22
First Quarter
Sep 29
Full

Hourly Weather History & Observations

Time (CDT) Temp. Heat Index Dew Point Humidity Pressure Visibility Wind Dir Wind Speed Gust Speed Precip Events Conditions
12:15 AM 82.4 °F 82.9 °F 60.8 °F 48% 29.96 in 10.0 mi South 6.9 mph - N/A   Unknown
12:35 AM 80.6 °F 81.5 °F 60.8 °F 51% 29.96 in 10.0 mi South 6.9 mph - N/A   Unknown
12:55 AM 80.6 °F 81.5 °F 60.8 °F 51% 29.96 in 10.0 mi South 8.1 mph - N/A   Unknown
1:15 AM 80.6 °F 81.5 °F 60.8 °F 51% 29.97 in 10.0 mi South 6.9 mph - N/A   Unknown
1:35 AM 80.6 °F 81.5 °F 60.8 °F 51% 29.98 in 10.0 mi South 8.1 mph - N/A   Unknown
1:55 AM 80.6 °F 81.1 °F 59.0 °F 48% 29.98 in 10.0 mi SSW 8.1 mph - N/A   Unknown
2:15 AM 80.6 °F 81.1 °F 59.0 °F 48% 29.98 in 10.0 mi SSW 8.1 mph - N/A   Unknown
2:35 AM 80.6 °F 81.5 °F 60.8 °F 51% 29.98 in 10.0 mi SSW 8.1 mph - N/A   Unknown
2:55 AM 82.4 °F 82.9 °F 60.8 °F 48% 29.98 in 10.0 mi SSW 9.2 mph - N/A   Unknown
3:15 AM 82.4 °F 83.4 °F 62.6 °F 51% 29.98 in 10.0 mi SW 8.1 mph - N/A   Unknown
3:35 AM 80.6 °F 81.8 °F 62.6 °F 54% 29.98 in 10.0 mi SW 6.9 mph - N/A   Unknown
3:55 AM 80.6 °F 81.8 °F 62.6 °F 54% 29.98 in 10.0 mi SW 4.6 mph - N/A   Unknown
4:15 AM 78.8 °F - 62.6 °F 57% 29.99 in 10.0 mi SSW 6.9 mph - N/A   Unknown
4:35 AM 78.8 °F - 62.6 °F 57% 29.99 in 10.0 mi SW 8.1 mph - N/A   Unknown
4:55 AM 78.8 °F - 64.4 °F 61% 29.99 in 10.0 mi SW 6.9 mph - N/A   Unknown
5:15 AM 78.8 °F - 64.4 °F 61% 29.99 in 10.0 mi SW 5.8 mph - N/A   Unknown
5:35 AM 78.8 °F - 64.4 °F 61% 29.99 in 10.0 mi SW 8.1 mph - N/A   Unknown
5:55 AM 78.8 °F - 64.4 °F 61% 30.00 in 10.0 mi SW 5.8 mph - N/A   Unknown
6:15 AM 78.8 °F - 64.4 °F 61% 30.00 in 10.0 mi SW 8.1 mph - N/A   Unknown
6:35 AM 78.8 °F - 64.4 °F 61% 30.01 in 10.0 mi SW 6.9 mph - N/A   Unknown
7:15 AM 78.8 °F - 66.2 °F 65% 30.02 in 10.0 mi SW 8.1 mph - N/A   Unknown
7:35 AM 77.0 °F - 66.2 °F 69% 30.03 in 10.0 mi SW 9.2 mph - N/A   Unknown
7:55 AM 78.8 °F - 66.2 °F 65% 30.03 in 10.0 mi SW 8.1 mph - N/A   Unknown
8:15 AM 78.8 °F - 68.0 °F 69% 30.04 in 10.0 mi SW 8.1 mph - N/A   Unknown
8:35 AM 80.6 °F 82.7 °F 66.2 °F 61% 30.04 in 10.0 mi WSW 10.4 mph - N/A   Unknown
8:55 AM 82.4 °F 84.6 °F 66.2 °F 58% 30.05 in 10.0 mi SW 9.2 mph - N/A   Unknown
9:15 AM 84.2 °F 86.6 °F 66.2 °F 55% 30.05 in 10.0 mi SW 11.5 mph - N/A   Unknown
9:35 AM 86.0 °F 88.2 °F 66.2 °F 51% 30.05 in 10.0 mi WSW 10.4 mph - N/A   Unknown
9:55 AM 87.8 °F 89.4 °F 64.4 °F 46% 30.06 in 10.0 mi West 12.7 mph - N/A   Unknown
10:15 AM 89.6 °F 90.1 °F 62.6 °F 40% 30.06 in 10.0 mi WSW 11.5 mph 16.1 mph N/A   Unknown
10:35 AM 91.4 °F 92.1 °F 62.6 °F 38% 30.06 in 10.0 mi WNW 12.7 mph 17.3 mph N/A   Unknown
10:55 AM 93.2 °F 94.1 °F 62.6 °F 36% 30.05 in 10.0 mi West 12.7 mph 17.3 mph N/A   Unknown
11:15 AM 95.0 °F 96.0 °F 62.6 °F 34% 30.05 in 10.0 mi West 6.9 mph 20.7 mph N/A   Unknown
11:35 AM 96.8 °F 97.1 °F 60.8 °F 30% 30.05 in 10.0 mi West 6.9 mph - N/A   Unknown
11:55 AM 98.6 °F 100.0 °F 62.6 °F 30% 30.05 in 10.0 mi West 6.9 mph - N/A   Unknown
12:15 PM 98.6 °F 99.4 °F 60.8 °F 29% 30.04 in 10.0 mi WNW 9.2 mph - N/A   Unknown
12:35 PM 100.4 °F 101.3 °F 60.8 °F 27% 30.03 in 10.0 mi Calm Calm - N/A   Unknown
12:55 PM 100.4 °F 101.3 °F 60.8 °F 27% 30.03 in 10.0 mi Calm Calm - N/A   Unknown
1:15 PM 102.2 °F 102.4 °F 59.0 °F 24% 30.02 in 10.0 mi NW 4.6 mph - N/A   Unknown
1:35 PM 102.2 °F 102.4 °F 59.0 °F 24% 30.01 in 10.0 mi SW 8.1 mph - N/A   Unknown
1:55 PM 100.4 °F 98.8 °F 55.4 °F 22% 30.00 in 10.0 mi West 8.1 mph - N/A   Unknown
2:15 PM 98.6 °F 97.2 °F 55.4 °F 24% 29.99 in 10.0 mi SW 10.4 mph - N/A   Unknown
2:35 PM 100.4 °F - 51.8 °F 20% 29.98 in 10.0 mi SSW 4.6 mph - N/A   Unknown
2:55 PM 100.4 °F 98.4 °F 53.6 °F 21% 29.97 in 10.0 mi South 5.8 mph - N/A   Unknown
3:15 PM 105.8 °F - 51.8 °F 17% 29.96 in 10.0 mi Calm Calm - N/A   Unknown
3:35 PM 104.0 °F 102.3 °F 53.6 °F 19% 29.96 in 10.0 mi South 10.4 mph - N/A   Unknown
3:55 PM 104.0 °F 102.3 °F 53.6 °F 19% 29.95 in 10.0 mi SW 9.2 mph - N/A   Unknown
4:15 PM 104.0 °F 102.3 °F 53.6 °F 19% 29.94 in 10.0 mi SSE 4.6 mph - N/A   Unknown
4:35 PM 104.0 °F 102.3 °F 53.6 °F 19% 29.94 in 10.0 mi South 8.1 mph - N/A   Unknown
4:55 PM 104.0 °F 102.3 °F 53.6 °F 19% 29.93 in 10.0 mi SSW 9.2 mph - N/A   Unknown
5:15 PM 100.4 °F 98.4 °F 53.6 °F 21% 29.94 in 10.0 mi SSW 9.2 mph - N/A   Unknown
5:35 PM 100.4 °F 98.8 °F 55.4 °F 22% 29.94 in 10.0 mi South 10.4 mph - N/A   Unknown
5:55 PM 100.4 °F 98.4 °F 53.6 °F 21% 29.94 in 10.0 mi SSW 9.2 mph 17.3 mph N/A   Unknown
6:15 PM 98.6 °F 96.4 °F 53.6 °F 22% 29.94 in 10.0 mi SSW 10.4 mph - N/A   Unknown
6:35 PM 98.6 °F 96.4 °F 53.6 °F 22% 29.94 in 10.0 mi SSW 9.2 mph - N/A   Unknown
6:55 PM 96.8 °F 95.1 °F 55.4 °F 25% 29.94 in 10.0 mi SSW 8.1 mph - N/A   Unknown
7:15 PM 96.8 °F 95.1 °F 55.4 °F 25% 29.94 in 10.0 mi South 6.9 mph - N/A   Unknown
7:35 PM 95.0 °F 93.0 °F 55.4 °F 26% 29.94 in 10.0 mi SSW 5.8 mph - N/A   Unknown
9:15 PM 89.6 °F 88.1 °F 57.2 °F 33% 29.96 in 10.0 mi South 6.9 mph - N/A   Unknown
9:35 PM 89.6 °F 88.9 °F 59.0 °F 36% 29.97 in 10.0 mi South 6.9 mph - N/A   Unknown
9:55 PM 87.8 °F 87.1 °F 59.0 °F 38% 29.97 in 10.0 mi South 9.2 mph - N/A   Unknown
10:35 PM 87.8 °F 87.1 °F 59.0 °F 38% 29.98 in 10.0 mi South 8.1 mph - N/A   Unknown
10:55 PM 87.8 °F 87.6 °F 60.8 °F 40% 29.98 in 10.0 mi South 8.1 mph - N/A   Unknown
11:15 PM 86.0 °F 86.1 °F 60.8 °F 43% 29.98 in 10.0 mi South 8.1 mph - N/A   Unknown
11:35 PM 86.0 °F 86.1 °F 60.8 °F 43% 29.98 in 10.0 mi South 9.2 mph - N/A   Unknown
11:55 PM 86.0 °F 86.1 °F 60.8 °F 43% 29.98 in 10.0 mi South 11.5 mph - N/A   Unknown